Monticello, KY

5:05 AM EDT on March 24, 2017 (GMT -0400)
Wayne County

Weather History for KEKQ - November, 2013

Change the Weather History Date:

Saturday, November 30, 2013

  Actual Average Record
Temperature  
Mean Temperature 38 °F -  
Max Temperature 57 °F 51 °F 72 °F (2006)
Min Temperature 19 °F 32 °F 5 °F (1976)
Degree Days  
Heating Degree Days 27    
Moisture  
Dew Point 24 °F    
Average Humidity 68    
Maximum Humidity 92    
Minimum Humidity 26    
Precipitation  
Precipitation 0.00 in - - ()
Sea Level Pressure  
Sea Level Pressure 30.43 in    
Wind  
Wind Speed 2 mph (SSW)    
Max Wind Speed 13 mph    
Max Gust Speed -    
Visibility 10 miles    
Events Rain    
Averages and records for this station are not official NWS values.
T = Trace of Precipitation, MM = Missing Value Source: NWS Daily Summary

Daily Weather History Graph

Daily Weather History Graph

Search for Another Location

Airport or City:

Trip Planner

Search our weather history database for the weather conditions in past years. The results will help you decide how hot, cold, wet, or windy it might be!

Date:

Astronomy

Nov. 30, 2013 Rise Set
Actual Time 6:32 AM CST 4:23 PM CST
Civil Twilight 6:04 AM CST 4:51 PM CST
Nautical Twilight 5:32 AM CST 5:23 PM CST
Astronomical Twilight 5:01 AM CST 5:55 PM CST
Moon 3:46 AM CST (11/30) 2:44 PM CST (11/30)
Length of Visible Light 10h 47m
Length of Day
9h 50m
Waning Crescent, 7% of the Moon is Illuminated
Nov 30
Waning Crescent
Dec 2
New
Dec 9
First Quarter
Dec 17
Full
Dec 25
Last Quarter

Hourly Weather History & Observations

Time (CST) Temp. Dew Point Humidity Pressure Visibility Wind Dir Wind Speed Gust Speed Precip Events Conditions
12:56 AM 20.1 °F 17.1 °F 88% 30.52 in 10.0 mi Calm Calm - N/A   Clear
1:56 AM 19.0 °F 17.1 °F 92% 30.52 in 10.0 mi Calm Calm - N/A   Clear
2:56 AM 22.1 °F 20.1 °F 92% 30.51 in 10.0 mi Calm Calm - N/A   Clear
3:56 AM 21.0 °F 19.0 °F 92% 30.51 in 10.0 mi Calm Calm - N/A   Clear
4:56 AM 20.1 °F 18.1 °F 92% 30.52 in 10.0 mi Calm Calm - N/A   Clear
5:56 AM 20.1 °F 18.1 °F 92% 30.53 in 10.0 mi Calm Calm - N/A   Clear
6:56 AM 21.0 °F 19.0 °F 92% 30.54 in 10.0 mi Calm Calm - N/A   Clear
7:56 AM 30.0 °F 28.0 °F 92% 30.54 in 10.0 mi Calm Calm - N/A   Clear
8:56 AM 41.0 °F 32.0 °F 70% 30.53 in 10.0 mi Calm Calm - N/A   Clear
9:56 AM 48.9 °F 30.0 °F 48% 30.52 in 10.0 mi SSE 4.6 mph - N/A   Clear
10:56 AM 54.9 °F 27.1 °F 34% 30.48 in 10.0 mi SSW 10.4 mph - N/A   Clear
11:56 AM 56.8 °F 25.2 °F 30% 30.43 in 10.0 mi SSW 12.7 mph - N/A   Clear
12:56 PM 57.9 °F 26.1 °F 30% 30.40 in 10.0 mi SSW 9.2 mph - N/A   Clear
1:56 PM 57.9 °F 23.0 °F 26% 30.37 in 10.0 mi SW 10.4 mph - 0.00 in Rain Light Rain
2:56 PM 56.8 °F 24.1 °F 28% 30.34 in 10.0 mi WSW 9.2 mph - 0.00 in   Clear
3:56 PM 52.9 °F 24.1 °F 33% 30.33 in 10.0 mi SW 5.8 mph - N/A   Clear
4:56 PM 47.8 °F 28.0 °F 46% 30.33 in 10.0 mi SSE 4.6 mph - N/A   Clear
5:56 PM 45.0 °F 27.1 °F 50% 30.34 in 10.0 mi Calm Calm - 0.00 in Rain Light Rain
6:56 PM 32.9 °F 26.1 °F 76% 30.35 in 10.0 mi Calm Calm - 0.00 in   Clear
7:56 PM 32.0 °F 25.2 °F 76% 30.34 in 10.0 mi Calm Calm - N/A   Clear
8:56 PM 30.0 °F 25.2 °F 82% 30.32 in 10.0 mi Calm Calm - N/A   Clear
9:56 PM 26.1 °F 23.0 °F 88% 30.32 in 10.0 mi Calm Calm - N/A   Clear
10:56 PM 26.1 °F 22.1 °F 85% 30.31 in 10.0 mi Calm Calm - N/A   Clear
11:56 PM 25.2 °F 22.1 °F 88% 30.30 in 10.0 mi Calm Calm - N/A   Clear